Date String (YYYY-MM-DD hh:mm:ss) UTC,Instrument flags,Ambient pressure (hPa),Sample flow (lpm),Bypass flow (lpm),Sample temperature (°C),Ambient temperature (°C),ASC tube jacket temperature (°C),LED temperature (°C),Box temperature (°C),Sample RH (%),Span deviation,Mass concentration (μg/m³),Mass concentration (μg/m³),Mass concentration (μg/m³)
DateTimeUTC,F1_M11,P_M11,Q1_M11,Q2_M11,T1_M11,T2_M11,T3_M11,T4_M11,T5_M11,U1_M11,ZSPAN_M11,X2_M11,X0_M11,X1_M11
2023-04-14 14:00:00,,0822.0,5.00,0.00,24.5,22.8,00.0,32.8,26.0,20.6,0000.0,0004.76,0011.85,0003.51
2023-04-14 14:01:00,,0821.9,5.00,0.00,24.5,22.8,00.0,32.8,26.0,21.0,0000.0,0004.75,0011.19,0003.54
2023-04-14 14:02:00,,0821.9,4.99,0.00,24.5,22.8,00.0,32.8,26.0,21.3,0000.0,0004.80,0011.67,0003.59
2023-04-14 14:03:00,,0822.0,4.99,0.00,24.5,22.8,00.0,32.8,26.0,21.3,0000.0,0004.82,0011.47,0003.65
2023-04-14 14:04:00,,0821.9,5.00,0.00,24.5,22.7,00.0,32.8,26.0,21.4,0000.0,0004.83,0011.28,0003.73
2023-04-14 14:05:00,,0822.0,5.00,0.00,24.4,22.7,00.0,32.8,25.9,21.4,0000.0,0004.93,0011.48,0003.82
2023-04-14 14:06:00,,0822.0,5.00,0.00,24.4,22.6,00.0,32.8,25.9,21.6,0000.0,0005.00,0011.43,0003.89
2023-04-14 14:07:00,,0822.0,5.00,0.00,24.4,22.6,00.0,32.8,25.9,21.7,0000.0,0005.11,0010.93,0003.98
2023-04-14 14:08:00,,0822.1,5.00,0.00,24.4,22.6,00.0,32.8,25.9,21.8,0000.0,0005.17,0010.93,0004.08
2023-04-14 14:09:00,,0822.0,5.01,0.00,24.4,22.6,00.0,32.8,25.9,21.7,0000.0,0005.25,0010.80,0004.18
2023-04-14 14:10:00,,0822.0,4.99,0.00,24.4,22.5,00.0,32.8,25.9,21.8,0000.0,0005.29,0010.72,0004.29
2023-04-14 14:11:00,,0822.1,4.99,0.00,24.4,22.5,00.0,32.7,25.9,21.8,0000.0,0005.35,0010.47,0004.39
2023-04-14 14:12:00,,0821.8,5.01,0.00,24.3,22.5,00.0,32.7,25.9,21.9,0000.0,0005.45,0010.47,0004.46
2023-04-14 14:13:00,,0821.7,5.01,0.00,24.3,22.4,00.0,32.7,25.8,21.9,0000.0,0005.51,0010.07,0004.51
2023-04-14 14:14:00,,0821.6,5.01,0.00,24.3,22.4,00.0,32.7,25.8,21.9,0000.0,0005.56,0009.87,0004.55
2023-04-14 14:15:00,,0821.5,5.00,0.00,24.3,22.4,00.0,32.7,25.8,22.0,0000.0,0005.61,0009.90,0004.59
2023-04-14 14:16:00,,0821.6,5.00,0.00,24.3,22.4,00.0,32.7,25.7,21.9,0000.0,0005.64,0009.88,0004.60
2023-04-14 14:17:00,,0821.6,4.99,0.00,24.3,22.4,00.0,32.7,25.7,21.8,0000.0,0005.64,0009.87,0004.62
2023-04-14 14:18:00,,0821.7,5.00,0.00,24.3,22.3,00.0,32.7,25.7,21.7,0000.0,0005.65,0009.90,0004.63
2023-04-14 14:19:00,,0821.7,4.99,0.00,24.2,22.3,00.0,32.7,25.7,21.7,0000.0,0005.67,0009.78,0004.65
2023-04-14 14:20:00,,0821.7,5.00,0.00,24.2,22.3,00.0,32.7,25.6,21.8,0000.0,0005.67,0009.75,0004.67
2023-04-14 14:21:00,,0821.7,5.00,0.00,24.2,22.3,00.0,32.7,25.6,21.9,0000.0,0005.68,0009.74,0004.69
2023-04-14 14:22:00,,0821.7,5.00,0.00,24.2,22.2,00.0,32.6,25.6,21.9,0000.0,0005.74,0009.94,0004.70
2023-04-14 14:23:00,,0821.7,4.99,0.00,24.2,22.2,00.0,32.6,25.6,21.9,0000.0,0005.75,0009.87,0004.72
2023-04-14 14:24:00,,0821.7,5.00,0.00,24.2,22.2,00.0,32.6,25.5,21.9,0000.0,0005.71,0009.66,0004.72
2023-04-14 14:25:00,,0821.7,5.01,0.00,24.1,22.1,00.0,32.6,25.5,22.0,0000.0,0005.70,0009.59,0004.74
2023-04-14 14:26:00,,0821.8,5.00,0.00,24.1,22.1,00.0,32.6,25.5,22.0,0000.0,0005.71,0009.62,0004.75
2023-04-14 14:27:00,,0821.7,5.00,0.00,24.1,22.0,00.0,32.6,25.5,22.1,0000.0,0005.69,0009.57,0004.76
2023-04-14 14:28:00,,0821.7,4.99,0.00,24.0,22.0,00.0,32.5,25.5,22.2,0000.0,0005.68,0009.51,0004.76
2023-04-14 14:29:00,,0821.7,5.00,0.00,24.0,22.0,00.0,32.5,25.5,22.2,0000.0,0005.72,0009.54,0004.77
2023-04-14 14:30:00,,0821.7,5.00,0.00,24.0,22.0,00.0,32.5,25.5,22.1,0000.0,0005.71,0009.52,0004.78
2023-04-14 14:31:00,,0821.8,5.01,0.00,24.0,22.0,00.0,32.5,25.5,22.2,0000.0,0005.73,0009.73,0004.79
2023-04-14 14:32:00,,0821.8,5.00,0.00,24.0,22.0,00.0,32.5,25.5,22.2,0000.0,0005.74,0010.21,0004.80
2023-04-14 14:33:00,,0821.7,4.99,0.00,24.0,22.0,00.0,32.5,25.5,22.3,0000.0,0005.76,0010.46,0004.81
2023-04-14 14:34:00,,0821.7,4.99,0.00,24.0,22.0,00.0,32.5,25.5,22.2,0000.0,0005.79,0010.64,0004.82
2023-04-14 14:35:00,,0821.7,5.00,0.00,24.0,22.0,00.0,32.5,25.5,22.2,0000.0,0005.85,0010.90,0004.83
2023-04-14 14:36:00,,0821.7,5.01,0.00,24.0,22.0,00.0,32.4,25.5,22.1,0000.0,0005.88,0011.21,0004.83
2023-04-14 14:37:00,,0821.7,5.01,0.00,24.0,22.0,00.0,32.4,25.5,22.2,0000.0,0005.89,0011.26,0004.84
2023-04-14 14:38:00,,0821.7,4.99,0.00,23.9,22.0,00.0,32.4,25.5,22.2,0000.0,0005.91,0011.26,0004.86
2023-04-14 14:39:00,,0821.8,5.00,0.00,23.9,22.0,00.0,32.4,25.4,22.2,0000.0,0005.94,0011.30,0004.88
2023-04-14 14:40:00,,0821.8,5.00,0.00,23.9,22.0,00.0,32.4,25.4,22.3,0000.0,0005.92,0011.42,0004.92
2023-04-14 14:41:00,,0821.7,5.00,0.00,23.9,21.9,00.0,32.4,25.3,22.2,0000.0,0005.94,0011.77,0004.94
2023-04-14 14:42:00,,0821.7,5.00,0.00,23.9,21.9,00.0,32.4,25.3,22.1,0000.0,0005.94,0011.56,0004.96
2023-04-14 14:43:00,,0821.7,5.00,0.00,23.9,21.9,00.0,32.4,25.3,22.0,0000.0,0005.95,0011.11,0004.97
2023-04-14 14:44:00,,0821.8,5.00,0.00,23.8,21.8,00.0,32.3,25.3,22.0,0000.0,0005.91,0010.77,0004.99
2023-04-14 14:45:00,,0821.7,5.01,0.00,23.8,21.8,00.0,32.3,25.3,22.0,0000.0,0005.89,0010.66,0005.01
2023-04-14 14:46:00,,0821.8,5.01,0.00,23.8,21.8,00.0,32.3,25.3,21.9,0000.0,0005.89,0010.53,0005.04
2023-04-14 14:47:00,,0821.8,4.99,0.00,23.8,21.8,00.0,32.3,25.3,21.9,0000.0,0005.86,0010.24,0005.04
2023-04-14 14:48:00,,0821.8,4.99,0.00,23.8,21.8,00.0,32.3,25.3,21.8,0000.0,0005.83,0010.66,0005.05
2023-04-14 14:49:00,,0821.8,5.00,0.00,23.8,21.8,00.0,32.3,25.3,21.8,0000.0,0005.80,0010.55,0005.06
2023-04-14 14:50:00,,0821.8,5.00,0.00,23.8,21.7,00.0,32.3,25.3,21.8,0000.0,0005.81,0010.60,0005.07
2023-04-14 14:51:00,,0821.8,5.01,0.00,23.7,21.7,00.0,32.3,25.3,22.0,0000.0,0005.82,0010.57,0005.07
2023-04-14 14:52:00,,0821.8,5.01,0.00,23.7,21.7,00.0,32.2,25.3,21.9,0000.0,0005.87,0010.31,0005.08
2023-04-14 14:53:00,,0821.8,5.00,0.00,23.7,21.8,00.0,32.2,25.2,21.8,0000.0,0005.88,0010.31,0005.09
2023-04-14 14:54:00,,0821.8,5.00,0.00,23.7,21.8,00.0,32.2,25.2,21.7,0000.0,0005.91,0010.46,0005.10
2023-04-14 14:55:00,,0821.8,5.00,0.00,23.7,21.8,00.0,32.2,25.3,21.6,0000.0,0005.93,0010.42,0005.11
2023-04-14 14:56:00,,0821.8,4.99,0.00,23.7,21.8,00.0,32.2,25.2,21.6,0000.0,0005.94,0010.78,0005.10
2023-04-14 14:57:00,,0821.8,4.99,0.00,23.7,21.8,00.0,32.2,25.2,21.6,0000.0,0005.93,0010.79,0005.11
2023-04-14 14:58:00,,0821.7,5.00,0.00,23.7,21.8,00.0,32.2,25.2,21.5,0000.0,0005.94,0010.85,0005.11
2023-04-14 14:59:00,,0821.7,5.01,0.00,23.7,21.8,00.0,32.2,25.2,21.4,0000.0,,,
